Flag for U.S.A. Weather past 2 weeks in Wheaton, Illinois, U.S.A.

Now
67 °F

Overcast.


Feels Like: 67 °F
Forecast: 64 / 75 °F
Wind: 3 mph from Southeast

Location: Dupage Airport

Current Time: Aug 29, 2015 at 1:41:05 AM

Latest Report: Aug 29, 2015 at 12:52 AM


Visibility: 9 mi

Pressure: 30.06 "Hg

Humidity: 81%

Dew point: 61 °F

Location of WheatonLocation

Historic Weather in Wheaton — Graph

°F

Wheaton temperature yesterday

Maximum temperature yesterday: 71 °F (at 2:52 PM)
Minimum temperature yesterday: 55 °F (at 1:52 AM)
Average temperature yesterday: 65 °F

Past Weeks' High & Low Weather Summary

 TemperatureHumidityPressure
High88 °F (Aug 16, 2:52 PM)96% (Aug 16, 2:52 AM)30.22 "Hg (Aug 16, 2:52 AM)
Low47 °F (Aug 27, 5:52 AM)41% (Aug 20, 3:52 PM)29.62 "Hg (Aug 19, 4:52 AM)
Average69 °F72%29.99 "Hg
* Reported Aug 13 11:52 PM — Aug 28 11:52 PM, Wheaton, Weather by CustomWeather, © 2015

Note: Actual official high and low records may vary slightly from our data, if they occured in-between our weather recording intervals... More about our weather records

Advertising

Wheaton weather history for previous 24 hours

 ConditionsComfort  
Time TempWeatherWind HumidityBarometerVisibility
11:52 PM
Fri, Aug 28
68 °FPassing clouds.6 mph78%30.06 "Hg10 mi
10:52 PM68 °FClear.7 mph76%30.06 "Hg10 mi
9:52 PM69 °FClear.8 mph73%30.05 "Hg10 mi
8:52 PM69 °FPassing clouds.8 mph73%30.05 "Hg10 mi
7:52 PM69 °FPartly sunny.3 mph76%30.05 "Hg10 mi
6:52 PM70 °FSunny.3 mph73%30.05 "Hg10 mi
5:52 PM70 °FPassing clouds.6 mph73%30.06 "Hg10 mi
4:52 PM71 °FMostly cloudy.5 mph71%30.06 "Hg10 mi
3:52 PM71 °FSunny.3 mph71%30.08 "Hg10 mi
2:52 PM71 °FScattered clouds.6 mph71%30.10 "Hg10 mi
1:52 PM70 °FOvercast.5 mph71%30.11 "Hg10 mi
12:52 PM70 °FSunny.5 mph71%30.13 "Hg10 mi
11:52 AM70 °FSunny.7 mph71%30.14 "Hg10 mi
10:52 AM68 °FSunny.6 mph76%30.14 "Hg10 mi
9:52 AM66 °FSunny.6 mph78%30.15 "Hg10 mi
8:52 AM64 °FSunny.3 mph81%30.13 "Hg9 mi
7:52 AM62 °FSunny.No wind83%30.13 "Hg7 mi
6:52 AM60 °FClear.No wind83%30.11 "Hg7 mi
5:52 AM58 °FClear.No wind87%30.11 "Hg7 mi
4:52 AM57 °FClear.No wind87%30.10 "Hg7 mi
3:52 AM55 °FFog.No wind93%30.11 "Hg5 mi
2:52 AM56 °FFog.No wind90%30.11 "Hg6 mi
1:52 AM55 °FClear.No wind90%30.12 "Hg7 mi
Weather by CustomWeather, © 2015

See weather overviewHow to use our weather pages